Weather History for Melfa, VA

Change the Weather History Date:

Wednesday, August 28, 2013

  Actual Average (KWAL) Record (KWAL)
Temperature  
Mean Temperature 80 °F 74 °F  
Max Temperature 86 °F 82 °F 93 °F (1993)
Min Temperature 75 °F 66 °F 50 °F (1986)
Degree Days  
Heating Degree Days 0    
Month to date heating degree days  
Since 1 June heating degree days  
Since 1 July heating degree days  
Cooling Degree Days 16    
Month to date cooling degree days  
Year to date cooling degree days  
Since 1 June cooling degree days  
Growing Degree Days 30 (Base 50)    
Moisture  
Dew Point 73 °F    
Average Humidity 84    
Maximum Humidity 94    
Minimum Humidity 66    
Precipitation  
Precipitation 0.13 in 0.12 in 1.30 in (2002)
Month to date precipitation 3.85  
Year to date precipitation 27.05  
Sea Level Pressure  
Sea Level Pressure 29.89 in    
Wind  
Wind Speed 3 mph (WSW)    
Max Wind Speed 10 mph    
Max Gust Speed -    
Visibility 6 miles    
Events Rain    
T = Trace of Precipitation, MM = Missing Value Source: NWS Daily Summary

Daily Weather History Graph

Daily Weather History Graph

Search for Another Location

Airport:

Trip Planner

Search our weather history database for the weather conditions in past years. The results will help you decide how hot, cold, wet, or windy it might be!

Date:

Astronomy

Aug. 28, 2013 Rise Set
Actual Time 6:30 AM EDT 7:37 PM EDT
Civil Twilight 6:03 AM EDT 8:04 PM EDT
Nautical Twilight 5:30 AM EDT 8:36 PM EDT
Astronomical Twilight 4:57 AM EDT 9:10 PM EDT
Moon No Moon Rise 2:10 PM EDT
Length of Visible Light 14h 01m
Length of Day
13h 07m
Waning Gibbous, 47% of the Moon is Illuminated
Aug 28
Waning Gibbous
Sep 5
New
Sep 12
First Quarter
Sep 19
Full
Sep 26
Last Quarter

Hourly Weather History & Observations

Time (EDT) Temp. Heat Index Dew Point Humidity Pressure Visibility Wind Dir Wind Speed Gust Speed Precip Events Conditions
12:15 AM 75.2 °F - 73.4 °F 94% 29.93 in 5.0 mi Calm Calm - N/A   Clear
12:35 AM 75.2 °F - 73.4 °F 94% 29.94 in 4.0 mi West 3.5 mph - N/A   Clear
12:55 AM 75.2 °F - 71.6 °F 89% 29.93 in 3.0 mi Calm Calm - N/A   Clear
1:15 AM 75.2 °F - 71.6 °F 89% 29.92 in 3.0 mi Calm Calm - N/A   Clear
1:35 AM 75.2 °F - 71.6 °F 89% 29.92 in 2.0 mi Calm Calm - N/A   Clear
1:56 AM 75.2 °F - 71.6 °F 89% 29.91 in 2.5 mi West 4.6 mph - N/A   Clear
2:15 AM 75.2 °F - 71.6 °F 89% 29.91 in 3.0 mi WSW 3.5 mph - N/A   Clear
2:35 AM 75.2 °F - 71.6 °F 89% 29.91 in 4.0 mi SW 3.5 mph - N/A   Clear
2:55 AM 75.2 °F - 71.6 °F 89% 29.90 in 4.0 mi Calm Calm - N/A   Clear
3:15 AM 75.2 °F - 73.4 °F 94% 29.89 in 2.5 mi SSW 4.6 mph - N/A   Clear
3:35 AM 75.2 °F - 71.6 °F 89% 29.89 in 2.0 mi SSW 3.5 mph - N/A   Clear
3:55 AM 75.2 °F - 71.6 °F 89% 29.89 in 1.5 mi SSW 3.5 mph - N/A   Mist
4:16 AM 75.2 °F - 73.4 °F 94% 29.89 in 2.0 mi SW 3.5 mph - N/A   Clear
4:37 AM 75.2 °F - 73.4 °F 94% 29.88 in 1.0 mi WSW 3.5 mph - N/A   Mist
4:55 AM 75.2 °F - 73.4 °F 94% 29.89 in 1.2 mi WSW 3.5 mph - N/A   Mist
5:15 AM 75.2 °F - 73.4 °F 94% 29.89 in 2.0 mi WSW 3.5 mph - N/A   Clear
5:36 AM 75.2 °F - 73.4 °F 94% 29.89 in 3.0 mi SW 4.6 mph - N/A   Clear
5:55 AM 75.2 °F - 73.4 °F 94% 29.89 in 2.5 mi SW 3.5 mph - N/A   Clear
6:16 AM 75.2 °F - 73.4 °F 94% 29.89 in 2.5 mi WSW 4.6 mph - N/A   Clear
6:35 AM 75.2 °F - 73.4 °F 94% 29.89 in 3.0 mi WSW 3.5 mph - N/A   Clear
6:55 AM 77.0 °F - 75.2 °F 94% 29.90 in 4.0 mi WSW 5.8 mph - N/A   Clear
7:15 AM 78.8 °F - 75.2 °F 89% 29.91 in 3.0 mi West 4.6 mph - N/A   Clear
7:35 AM 78.8 °F - 75.2 °F 89% 29.91 in 3.0 mi WSW 3.5 mph - N/A   Clear
7:55 AM 78.8 °F - 75.2 °F 89% 29.91 in 3.0 mi West 3.5 mph - N/A   Clear
8:15 AM 80.6 °F 86.2 °F 75.2 °F 84% 29.91 in 3.0 mi West 5.8 mph - N/A   Clear
8:35 AM 80.6 °F 86.2 °F 75.2 °F 84% 29.92 in 5.0 mi West 3.5 mph - N/A   Haze
8:55 AM 82.4 °F 89.5 °F 75.2 °F 79% 29.92 in 5.0 mi West 4.6 mph - N/A   Haze
9:15 AM 82.4 °F 89.5 °F 75.2 °F 79% 29.92 in 7.0 mi WSW 3.5 mph - N/A   Clear
9:35 AM 82.4 °F 89.5 °F 75.2 °F 79% 29.91 in 7.0 mi WSW 3.5 mph - N/A   Clear
9:55 AM 84.2 °F 92.3 °F 75.2 °F 74% 29.91 in 10.0 mi WNW 3.5 mph - N/A   Clear
10:15 AM 82.4 °F 88.2 °F 73.4 °F 74% 29.92 in 10.0 mi West 4.6 mph - N/A   Clear
10:36 AM 84.2 °F 90.9 °F 73.4 °F 70% 29.92 in 10.0 mi West 4.6 mph - N/A   Clear
10:55 AM 84.2 °F 92.3 °F 75.2 °F 74% 29.92 in 10.0 mi West 4.6 mph - N/A   Clear
11:15 AM 84.2 °F 92.3 °F 75.2 °F 74% 29.92 in 10.0 mi West 4.6 mph - N/A   Clear
11:35 AM 84.2 °F 90.9 °F 73.4 °F 70% 29.92 in 10.0 mi West 5.8 mph - N/A   Clear
11:55 AM 84.2 °F 90.9 °F 73.4 °F 70% 29.92 in 10.0 mi WSW 8.1 mph - N/A   Clear
12:15 PM 84.2 °F 90.9 °F 73.4 °F 70% 29.92 in 10.0 mi West 6.9 mph - N/A   Clear
12:35 PM 84.2 °F 90.9 °F 73.4 °F 70% 29.91 in 10.0 mi West 8.1 mph - N/A   Clear
12:56 PM 82.4 °F 88.2 °F 73.4 °F 74% 29.91 in 10.0 mi West 5.8 mph - N/A   Scattered Clouds
1:15 PM 84.2 °F 90.9 °F 73.4 °F 70% 29.90 in 10.0 mi West 5.8 mph - N/A   Clear
1:36 PM 86.0 °F 93.4 °F 73.4 °F 66% 29.89 in 10.0 mi West 9.2 mph - N/A   Clear
1:56 PM 84.2 °F 90.9 °F 73.4 °F 70% 29.89 in 10.0 mi West 8.1 mph - N/A   Clear
2:16 PM 84.2 °F 90.9 °F 73.4 °F 70% 29.89 in 10.0 mi WNW 8.1 mph - N/A   Clear
2:35 PM 82.4 °F 89.5 °F 75.2 °F 79% 29.89 in 7.0 mi West 6.9 mph - N/A   Clear
2:56 PM 82.4 °F 89.5 °F 75.2 °F 79% 29.89 in 10.0 mi NW 4.6 mph - N/A   Clear
3:15 PM 84.2 °F 90.9 °F 73.4 °F 70% 29.88 in 10.0 mi WNW 3.5 mph - N/A   Clear
3:35 PM 82.4 °F 88.2 °F 73.4 °F 74% 29.87 in 10.0 mi NW 3.5 mph - N/A   Clear
3:55 PM 84.2 °F 90.9 °F 73.4 °F 70% 29.87 in 7.0 mi Calm Calm - N/A   Clear
4:15 PM 84.2 °F 92.3 °F 75.2 °F 74% 29.87 in 7.0 mi Calm Calm - N/A   Clear
4:35 PM 82.4 °F 88.2 °F 73.4 °F 74% 29.86 in 7.0 mi WSW 4.6 mph - N/A   Clear
4:55 PM 82.4 °F 88.2 °F 73.4 °F 74% 29.86 in 7.0 mi WSW 5.8 mph - N/A   Clear
5:16 PM 82.4 °F 88.2 °F 73.4 °F 74% 29.86 in 10.0 mi WSW 3.5 mph - N/A   Clear
5:55 PM 82.4 °F 87.2 °F 71.6 °F 70% 29.87 in 10.0 mi West 8.1 mph - N/A   Mostly Cloudy
6:17 PM 80.6 °F 84.6 °F 71.6 °F 74% 29.87 in 10.0 mi WNW 10.4 mph - N/A   Mostly Cloudy
6:35 PM 78.8 °F - 71.6 °F 78% 29.87 in 10.0 mi West 8.1 mph - N/A Rain Rain
6:55 PM 77.0 °F - 71.6 °F 83% 29.86 in 10.0 mi SW 3.5 mph - 0.01 in Rain Light Rain
7:15 PM 75.2 °F - 71.6 °F 89% 29.86 in 10.0 mi Calm Calm - N/A   Scattered Clouds
7:35 PM 75.2 °F - 71.6 °F 89% 29.86 in 7.0 mi WSW 3.5 mph - N/A   Scattered Clouds
7:55 PM 75.2 °F - 71.6 °F 89% 29.86 in 10.0 mi Calm Calm - N/A   Scattered Clouds
8:15 PM 75.2 °F - 73.4 °F 94% 29.86 in 10.0 mi West 3.5 mph - N/A   Scattered Clouds
8:35 PM 75.2 °F - 73.4 °F 94% 29.87 in 10.0 mi West 4.6 mph - N/A   Scattered Clouds
8:55 PM 77.0 °F - 71.6 °F 83% 29.87 in 10.0 mi WNW 5.8 mph - N/A   Overcast
9:15 PM 77.0 °F - 73.4 °F 89% 29.88 in 5.0 mi Calm Calm - 0.04 in Rain Heavy Rain
9:35 PM 75.2 °F - 73.4 °F 94% 29.89 in 7.0 mi Calm Calm - 0.06 in Rain Light Rain
9:55 PM 75.2 °F - 73.4 °F 94% 29.87 in 3.0 mi Calm Calm - 0.06 in   Mostly Cloudy
10:15 PM 75.2 °F - 73.4 °F 94% 29.87 in 3.0 mi Calm Calm - N/A   Scattered Clouds
10:35 PM 75.2 °F - 73.4 °F 94% 29.87 in 2.5 mi Calm Calm - N/A   Mist
10:55 PM 75.2 °F - 73.4 °F 94% 29.86 in 1.8 mi Calm Calm - N/A   Mostly Cloudy
11:16 PM 75.2 °F - 73.4 °F 94% 29.86 in 2.0 mi Calm Calm - N/A   Mostly Cloudy
11:35 PM 75.2 °F - 73.4 °F 94% 29.86 in 2.0 mi Calm Calm - N/A   Mostly Cloudy
11:55 PM 75.2 °F - 73.4 °F 94% 29.85 in 1.5 mi Calm Calm - 0.06 in Rain Rain